Find EPIC Hyper-1

NORAD ID: 56225 Int'l Des: 2023-054 Owner: CLAAC/WYV Country: UK operational
LEOCIRCULARRETROGRADESSO

Current View

Loading 3D Globe...

About EPIC Hyper-1

Description loading...

Upcoming Passes

Passes for default location (London). Set your location on the main map for personalized predictions.

Altitude History

Loading altitude history...

Two-Line Element Set

1 56225U 23054AZ 26150.63149660 .00002345 00000-0 13839-3 0 9994
2 56225 97.3713 27.6096 0009826 175.5863 184.5456 15.12453310172718
Epoch: May 30, 2026 • Age: 8 hours

Current Status

Altitude 557.4 km
Velocity 7.58 km/s
Sub-Earth Point -82.21°S, 90.91°W
Launch Date Apr 15, 2023
Age 3.1 years
Type other

Technical Details

Classification Payload
Mass 10.00 kg
Dry Mass 10.00 kg
Total Mass 10.00 kg
Length 0.30 m
Diameter 0.20 m
Span 0.40 m
Shape Box + 2 pan
Manufacturer CLAAC
Bus Type Cubesat 6U
Phase Status In Orbit
Owner/State CLAAC/WYV/UK

Most Searched